Overview Statistics Trail Chart Weather Telemetry Raw packets
 

This is the latest recevied weather packets stored in our database for station/object WI0K. If no packets are shown the sender has not sent any weather packets the latest 10 day(s).

<< 65 66 67 68 69 70 71 >>
Time Temp. Humidity Pressure Rain* Wind** Luminosity Snow
1788214284 28.33° C 30% 1019.8 hPa 0 mm - 131 W/m² -
1788213983 28.89° C 30% 1019.7 hPa 0 mm - 540 W/m² -
1788213682 28.89° C 29% 1019.7 hPa 0 mm - 510 W/m² -
1788213382 28.33° C 29% 1019.8 hPa 0 mm - 718 W/m² -
1788213081 28.33° C 29% 1019.7 hPa 0 mm - 735 W/m² -
1788212779 28.33° C 29% 1019.9 hPa 0 mm - 392 W/m² -
1788212479 28.33° C 30% 1020.1 hPa 0 mm - 289 W/m² -
1788212178 28.33° C 30% 1020.1 hPa 0 mm - 277 W/m² -
1788211877 28.33° C 30% 1020.1 hPa 0 mm - 351 W/m² -
1788211577 28.89° C 30% 1020.1 hPa 0 mm - 469 W/m² -
1788211276 28.33° C 31% 1020.2 hPa 0 mm - 326 W/m² -
1788210975 28.33° C 30% 1020.2 hPa 0 mm - 672 W/m² -
1788210674 28.33° C 31% 1020.3 hPa 0 mm - 657 W/m² -
1788210386 28.33° C 30% 1020.3 hPa 0 mm - 611 W/m² -
1788210072 28.89° C 30% 1020.3 hPa 0 mm - 575 W/m² -
1788209771 28.89° C 30% 1020.4 hPa 0 mm - 534 W/m² -
1788209470 28.89° C 30% 1020.4 hPa 0 mm - 707 W/m² -
1788209169 28.89° C 29% 1020.5 hPa 0 mm - 890 W/m² -
1788208868 28.33° C 30% 1020.5 hPa 0 mm - 807 W/m² -
1788208568 27.78° C 32% 1020.5 hPa 0 mm - 650 W/m² -
1788208267 27.78° C 30% 1020.7 hPa 0 mm - 653 W/m² -
1788207966 27.78° C 30% 1020.8 hPa 0 mm - 529 W/m² -
1788207666 27.78° C 31% 1020.9 hPa 0 mm - 479 W/m² -
1788207365 27.78° C 32% 1020.9 hPa 0 mm - 431 W/m² -
1788207064 27.78° C 32% 1021 hPa 0 mm - 405 W/m² -

* Rain latest hour (hover to see other rain measurements)
** Current wind speed in m/s (hover to see current wind gust speed)